Location: Unspecified
(0.0000°N, 0.0000°E)
Time: 07:49:11
(UTC+00:00)

deb DAPP - Pass Details

Date: 18 December 2025
Orbit: 606 x 945 km, 99.0° (Epoch: 14 January)

Event Time Altitude Azimuth Distance (km) Brightness Sun altitude
Rises 18:31:30 0° 149° (SSE) 3,254 ? -7.9°
Reaches altitude 10° 18:33:56 10° 140° (SE) 2,377 ? -8.5°
Maximum altitude 18:38:41 34° 76° (ENE) 1,355 ? -9.6°
Drops below altitude 10° 18:43:47 10° 12° (NNE) 2,553 ? -10.8°
Sets 18:46:28 0° 4° (N) 3,528 ? -11.4°
